TimeAKST,TemperatureF,Dew PointF,Humidity,Sea Level PressureIn,VisibilityMPH,Wind Direction,Wind SpeedMPH,Gust SpeedMPH,PrecipitationIn,Events,Conditions,WindDirDegrees,DateUTC
12:53 AM,-36.9,-9999,N/A,29.76,10.0,Calm,Calm,-,N/A,,Clear,0,2012-12-24 09:53:00
1:53 AM,-38.9,-9999,N/A,29.75,10.0,Calm,Calm,-,N/A,,Clear,0,2012-12-24 10:53:00
3:53 AM,-38.9,-9999,N/A,29.71,10.0,Calm,Calm,-,N/A,,Clear,0,2012-12-24 12:53:00
4:53 AM,-38.9,-9999,N/A,29.70,10.0,Calm,Calm,-,N/A,,Clear,0,2012-12-24 13:53:00
5:53 AM,-38.0,-9999,N/A,29.69,10.0,Calm,Calm,-,N/A,,Partly Cloudy,0,2012-12-24 14:53:00
6:53 AM,-36.0,-9999,N/A,29.67,10.0,Calm,Calm,-,N/A,,Partly Cloudy,0,2012-12-24 15:53:00
7:53 AM,-33.0,-9999,N/A,29.65,10.0,Calm,Calm,-,N/A,,Partly Cloudy,0,2012-12-24 16:53:00
8:53 AM,-29.9,-9999,N/A,29.64,10.0,Calm,Calm,-,N/A,,Mostly Cloudy,0,2012-12-24 17:53:00
9:53 AM,-25.1,-32.1,70,29.63,10.0,West,3.5,-,N/A,,Mostly Cloudy,280,2012-12-24 18:53:00
10:53 AM,-20.0,-26.0,74,29.60,10.0,WNW,4.6,-,N/A,,Mostly Cloudy,290,2012-12-24 19:53:00
11:53 AM,-17.0,-24.0,70,29.60,10.0,West,4.6,-,N/A,,Mostly Cloudy,280,2012-12-24 20:53:00
12:53 PM,-14.1,-20.9,71,29.61,10.0,West,4.6,-,N/A,,Mostly Cloudy,280,2012-12-24 21:53:00
1:53 PM,-13.0,-20.0,71,29.60,10.0,Calm,Calm,-,N/A,,Mostly Cloudy,0,2012-12-24 22:53:00
2:53 PM,-11.0,-18.0,71,29.59,10.0,Calm,Calm,-,N/A,,Mostly Cloudy,0,2012-12-24 23:53:00
3:53 PM,-9.0,-17.0,68,29.59,10.0,Calm,Calm,-,N/A,,Mostly Cloudy,0,2012-12-25 00:53:00
4:53 PM,-9.0,-16.1,71,29.58,10.0,West,3.5,-,N/A,,Partly Cloudy,270,2012-12-25 01:53:00
5:53 PM,-8.0,-15.0,71,29.58,10.0,Calm,Calm,-,N/A,,Clear,0,2012-12-25 02:53:00
6:53 PM,-7.1,-15.0,68,29.58,10.0,WSW,3.5,-,N/A,,Partly Cloudy,250,2012-12-25 03:53:00
7:53 PM,-7.1,-14.1,72,29.57,10.0,West,3.5,-,N/A,,Overcast,280,2012-12-25 04:53:00
8:53 PM,-9.0,-15.0,75,29.57,10.0,Calm,Calm,-,N/A,,Partly Cloudy,0,2012-12-25 05:53:00
9:53 PM,-7.1,-14.1,72,29.56,10.0,Calm,Calm,-,N/A,,Clear,0,2012-12-25 06:53:00
10:53 PM,-7.1,-14.1,72,29.54,10.0,West,3.5,-,N/A,,Partly Cloudy,280,2012-12-25 07:53:00
11:53 PM,-5.1,-11.9,72,29.53,10.0,Calm,Calm,-,N/A,,Overcast,0,2012-12-25 08:53:00